FW8839 Weather Reports


time (UTC)temp
C
wind
direction
speed
KPH
gust
KPH
rain 1hr
cm
rain 24hr
cm
rain mn
cm
humidity
%
barometer
mb
20260506162558 18 198 8.0 22.5 0.05 0.05 0.05 81 1005.9
20260506162055 18 219 12.9 22.5 0.03 0.03 0.03 80 1005.8
20260506161559 18 213 9.7 27.4 0.03 0.03 0.03 79 1006.1
20260506161056 18 235 11.3 27.4 0.03 0.03 0.03 79 1006.2
20260506160557 18 232 11.3 22.5 0.00 0.00 0.00 77 1006.6
20260506160108 18 219 11.3 22.5 0.00 0.00 0.00 76 1006.6
20260506155556 19 169 11.3 22.5 0.00 0.00 0.00 75 1006.6
20260506155056 19 234 8.0 20.9 0.00 0.00 0.00 75 1006.6
20260506154556 19 231 11.3 24.1 0.00 0.00 0.00 75 1006.7
20260506154056 19 258 12.9 25.7 0.00 0.00 0.00 74 1006.8
20260506153556 19 188 11.3 25.7 0.00 0.00 0.00 74 1006.6
20260506153058 19 220 12.9 24.1 0.00 0.00 0.00 72 1006.5
20260506152553 19 240 12.9 29.0 0.00 0.00 0.00 71 1006.6
20260506152053 20 235 9.7 29.0 0.00 0.00 0.00 70 1006.6
20260506151602 20 199 16.1 41.8 0.00 0.00 0.00 67 1006.6
20260506151052 20 196 19.3 41.8 0.00 0.00 0.00 67 1006.6
20260506150555 20 234 14.5 37.0 0.00 0.00 0.00 67 1006.6
20260506150100 20 224 17.7 37.0 0.00 0.00 0.00 66 1006.4
20260506145553 20 226 16.1 35.4 0.00 0.00 0.00 66 1006.3
20260506145055 20 235 12.9 30.6 0.00 0.00 0.00 66 1006.4
20260506144607 20 252 17.7 30.6 0.00 0.00 0.00 65 1006.7
20260506144052 20 221 14.5 30.6 0.00 0.00 0.00 66 1006.7
20260506143552 20 212 14.5 30.6 0.00 0.00 0.00 65 1006.7
20260506143057 20 201 12.9 35.4 0.00 0.00 0.00 64 1006.7
20260506142556 20 221 14.5 35.4 0.00 0.00 0.00 64 1006.7
20260506142055 20 221 12.9 37.0 0.00 0.00 0.00 64 1006.6
20260506141556 20 221 16.1 40.2 0.00 0.00 0.00 64 1006.6
20260506141053 20 212 16.1 40.2 0.00 0.00 0.00 64 1006.6
20260506140556 20 169 17.7 40.2 0.00 0.00 0.00 64 1006.5
20260506140058 20 201 14.5 32.2 0.00 0.00 0.00 64 1006.5
20260506135552 20 225 12.9 27.4 0.00 0.00 0.00 64 1006.5
20260506135057 20 243 14.5 27.4 0.00 0.00 0.00 65 1006.5
20260506134600 20 227 11.3 24.1 0.00 0.00 0.00 66 1006.5
20260506134052 20 202 12.9 22.5 0.00 0.00 0.00 67 1006.4
20260506133554 20 204 11.3 24.1 0.00 0.00 0.00 67 1006.4
20260506133101 20 222 12.9 24.1 0.00 0.00 0.00 67 1006.4
20260506132552 20 235 11.3 27.4 0.00 0.00 0.00 67 1006.4
20260506132056 20 208 9.7 29.0 0.00 0.00 0.00 67 1006.5
20260506131557 20 207 16.1 29.0 0.00 0.00 0.00 67 1006.4
20260506131056 20 221 12.9 33.8 0.00 0.00 0.00 67 1006.6
20260506130556 20 190 12.9 33.8 0.00 0.00 0.00 68 1006.7
20260506130059 20 192 16.1 35.4 0.00 0.00 0.00 68 1006.7
20260506125554 20 203 17.7 35.4 0.00 0.00 0.00 68 1006.8
20260506125056 20 235 14.5 32.2 0.00 0.00 0.00 68 1006.7
20260506124557 20 228 11.3 30.6 0.00 0.00 0.00 68 1006.5
20260506124057 20 229 12.9 33.8 0.00 0.00 0.00 69 1006.5
20260506123556 20 220 12.9 33.8 0.00 0.00 0.00 69 1006.6
20260506123056 19 214 14.5 29.0 0.00 0.00 0.00 70 1006.7
20260506122556 19 169 12.9 29.0 0.00 0.00 0.00 70 1006.6
20260506122057 19 181 12.9 27.4 0.00 0.00 0.00 70 1006.5
20260506121554 19 184 12.9 27.4 0.00 0.00 0.00 71 1006.7
20260506121055 19 195 11.3 24.1 0.00 0.00 0.00 71 1006.4
20260506120555 18 210 8.0 24.1 0.00 0.00 0.00 72 1006.6
20260506120058 18 165 11.3 32.2 0.00 0.00 0.00 72 1006.6
20260506115558 18 219 12.9 32.2 0.00 0.00 0.00 73 1006.6
20260506115054 18 163 11.3 30.6 0.00 0.00 0.00 73 1006.6
20260506114557 18 169 11.3 30.6 0.00 0.00 0.00 73 1006.7
20260506114054 18 206 14.5 30.6 0.00 0.00 0.00 73 1006.7
20260506113557 18 190 11.3 32.2 0.00 0.00 0.00 73 1006.7
20260506113100 18 217 8.0 32.2 0.00 0.00 0.00 73 1006.6
20260506112554 18 227 6.4 29.0 0.00 0.00 0.00 73 1006.5
20260506112054 18 228 8.0 29.0 0.00 0.00 0.00 73 1006.7
20260506111559 18 192 9.7 25.7 0.00 0.00 0.00 73 1006.6
20260506111056 18 214 9.7 25.7 0.00 0.00 0.00 74 1006.6
20260506110554 18 215 11.3 25.7 0.00 0.00 0.00 74 1006.6
20260506110055 18 181 11.3 25.7 0.00 0.00 0.00 74 1006.6
20260506105551 18 226 9.7 25.7 0.00 0.00 0.00 74 1006.6
20260506105058 18 161 11.3 29.0 0.00 0.00 0.00 75 1006.6
20260506104559 18 263 11.3 29.0 0.00 0.00 0.00 75 1006.5
20260506104054 18 217 6.4 20.9 0.00 0.00 0.00 75 1006.6
20260506103554 18 184 6.4 25.7 0.00 0.00 0.00 76 1006.6
20260506103055 17 233 11.3 27.4 0.00 0.00 0.00 76 1006.7
20260506102554 17 207 9.7 27.4 0.00 0.00 0.00 76 1006.6
20260506102054 17 189 8.0 25.7 0.00 0.00 0.00 76 1006.5
20260506101552 17 200 8.0 22.5 0.00 0.00 0.00 77 1006.5
20260506101056 17 211 11.3 24.1 0.00 0.00 0.00 77 1006.6
20260506100555 17 206 8.0 24.1 0.00 0.00 0.00 77 1006.7
20260506100104 17 238 9.7 24.1 0.00 0.00 0.00 76 1006.6
20260506095556 18 223 6.4 22.5 0.00 0.00 0.00 76 1006.7
20260506095055 18 186 11.3 20.9 0.00 0.00 0.00 76 1006.7
20260506094612 18 184 6.4 25.7 0.00 0.00 0.00 76 1006.6
20260506094057 18 186 9.7 25.7 0.00 0.00 0.00 76 1006.4
20260506093557 18 190 8.0 22.5 0.00 0.00 0.00 76 1006.4
20260506093058 18 235 11.3 22.5 0.00 0.00 0.00 76 1006.4
20260506092554 18 259 4.8 20.9 0.00 0.00 0.00 76 1006.4
20260506092055 18 213 6.4 24.1 0.00 0.00 0.00 76 1006.4
20260506091555 18 240 11.3 24.1 0.00 0.00 0.00 76 1006.4
20260506091056 18 196 4.8 27.4 0.00 0.00 0.00 76 1006.4
20260506090554 18 237 9.7 27.4 0.00 0.00 0.00 76 1006.5
20260506090100 18 213 8.0 20.9 0.00 0.00 0.00 75 1006.6
20260506085554 18 223 8.0 19.3 0.00 0.00 0.00 75 1006.5
20260506085055 18 157 8.0 19.3 0.00 0.00 0.00 75 1006.6
20260506084601 18 233 6.4 24.1 0.00 0.00 0.00 75 1006.6
20260506084057 18 236 9.7 24.1 0.00 0.00 0.00 75 1006.7
20260506083556 18 178 3.2 20.9 0.00 0.00 0.00 75 1006.7
20260506083059 18 0 9.7 20.9 0.00 0.00 0.00 75 1006.7
20260506082555 18 158 8.0 22.5 0.00 0.00 0.00 75 1006.7
20260506082056 18 227 8.0 22.5 0.00 0.00 0.00 75 1006.7
20260506081556 18 248 8.0 17.7 0.00 0.00 0.00 75 1006.8
20260506081059 18 180 9.7 20.9 0.00 0.00 0.00 75 1006.8
20260506080557 18 242 6.4 20.9 0.00 0.00 0.00 75 1006.8
20260506080108 18 196 8.0 24.1 0.00 0.00 0.00 75 1006.8
20260506073116 18 194 9.7 20.9 0.00 0.00 0.00 74 1006.7
20260506072556 18 229 8.0 20.9 0.00 0.00 0.00 74 1006.7
20260506072056 19 198 8.0 20.9 0.00 0.00 0.00 74 1006.9
20260506071600 19 192 8.0 20.9 0.00 0.00 0.00 74 1006.8
20260506071058 19 196 6.4 25.7 0.00 0.00 0.00 74 1006.9
20260506070557 19 217 8.0 25.7 0.00 0.00 0.00 74 1007.0
20260506062056 20 206 8.0 19.3 0.00 0.00 0.00 72 1007.1
20260506061616 20 240 9.7 19.3 0.00 0.00 0.00 72 1007.1
20260506061056 20 184 8.0 19.3 0.00 0.00 0.00 72 1007.1
20260506060556 20 186 8.0 22.5 0.00 0.00 0.00 72 1007.2
20260506060108 20 209 8.0 22.5 0.00 0.00 0.00 72 1007.2
20260506051055 20 206 11.3 32.2 0.00 0.00 0.00 70 1007.6
20260506050555 20 202 11.3 32.2 0.00 0.00 0.00 70 1007.5
20260506045056 20 203 8.0 24.1 0.00 0.00 0.00 69 1007.6
20260506044555 20 212 9.7 24.1 0.00 0.00 0.00 69 1007.7
20260506044056 20 225 11.3 20.9 0.00 0.00 0.00 69 1007.7
20260506043556 20 230 8.0 24.1 0.00 0.00 0.00 68 1007.7
20260506043056 20 197 11.3 27.4 0.00 0.00 0.00 68 1007.8
20260506042556 20 249 9.7 27.4 0.00 0.00 0.00 68 1007.7
20260506042055 20 171 12.9 27.4 0.00 0.00 0.00 67 1007.7
20260506041559 20 222 11.3 27.4 0.00 0.00 0.00 67 1007.7
20260506041056 20 227 11.3 27.4 0.00 0.00 0.00 67 1007.6
20260506040556 20 242 8.0 24.1 0.00 0.00 0.00 67 1007.6
20260506040058 20 242 11.3 27.4 0.00 0.00 0.00 66 1007.6
20260506035556 20 202 11.3 27.4 0.00 0.00 0.00 66 1007.5
20260506035057 20 239 14.5 33.8 0.00 0.00 0.00 66 1007.6
20260506034557 20 233 11.3 33.8 0.00 0.00 0.00 65 1007.5
20260506034056 21 225 8.0 22.5 0.00 0.00 0.00 65 1007.5
20260506033555 21 178 4.8 19.3 0.00 0.00 0.00 65 1007.4
20260506033109 21 227 8.0 24.1 0.00 0.00 0.00 64 1007.4
20260506032556 21 205 9.7 29.0 0.00 0.00 0.00 64 1007.4
20260506032056 21 223 14.5 29.0 0.00 0.00 0.00 64 1007.4
20260506031556 21 171 9.7 27.4 0.00 0.00 0.00 63 1007.4
20260506031055 21 244 9.7 27.4 0.00 0.00 0.00 63 1007.4
20260506030555 21 209 12.9 27.4 0.00 0.00 0.00 63 1007.5
20260506025556 21 238 6.4 27.4 0.00 0.00 0.00 62 1007.5
20260506025100 21 220 12.9 27.4 0.00 0.00 0.00 61 1007.4
20260506024613 21 221 8.0 24.1 0.00 0.00 0.00 61 1007.5
20260506024056 21 209 8.0 27.4 0.00 0.00 0.00 61 1007.5
20260506023556 21 208 8.0 27.4 0.00 0.00 0.00 60 1007.5
20260506023103 21 192 9.7 27.4 0.00 0.00 0.00 60 1007.5
20260506022555 21 189 9.7 27.4 0.00 0.00 0.00 60 1007.5
20260506022055 21 194 11.3 27.4 0.00 0.00 0.00 59 1007.5
20260506021600 21 223 9.7 19.3 0.00 0.00 0.00 59 1007.4
20260506021059 21 198 4.8 30.6 0.00 0.00 0.00 59 1007.5
20260506020555 21 204 11.3 30.6 0.00 0.00 0.00 59 1007.3
20260506020056 21 198 11.3 27.4 0.00 0.00 0.00 59 1007.5
20260506015600 22 251 8.0 27.4 0.00 0.00 0.00 59 1007.4
20260506015056 22 234 6.4 22.5 0.00 0.00 0.00 59 1007.4
20260506014554 22 195 6.4 22.5 0.00 0.00 0.00 59 1007.3
20260506014100 22 196 8.0 20.9 0.00 0.00 0.00 58 1007.2
20260506013556 22 159 6.4 24.1 0.00 0.00 0.00 58 1007.1
20260506013101 22 207 9.7 24.1 0.00 0.00 0.00 58 1007.2
20260506012556 22 211 3.2 25.7 0.00 0.00 0.00 58 1007.2
20260506012059 22 163 8.0 29.0 0.00 0.00 0.00 58 1007.0
20260506011624 22 191 8.0 30.6 0.00 0.00 0.00 58 1007.1
20260506011056 22 258 9.7 30.6 0.00 0.00 0.00 57 1007.1
20260506010556 22 188 11.3 27.4 0.00 0.00 0.00 57 1007.0
20260506010115 22 186 6.4 24.1 0.00 0.00 0.00 56 1007.0
20260506005557 23 250 4.8 24.1 0.00 0.00 0.00 54 1007.0
20260506005059 23 184 6.4 19.3 0.00 0.00 0.00 53 1007.0
20260506004555 23 162 9.7 24.1 0.00 0.00 0.00 52 1006.9
20260506004055 23 180 8.0 24.1 0.00 0.00 0.00 51 1006.8
20260506003555 23 169 6.4 24.1 0.00 0.00 0.00 50 1006.7
20260506003058 23 207 6.4 22.5 0.00 0.00 0.00 49 1006.7
20260506002555 24 169 6.4 22.5 0.00 0.00 0.00 49 1006.7
20260506002057 24 197 9.7 22.5 0.00 0.00 0.00 48 1006.6
20260506001557 24 251 11.3 22.5 0.00 0.00 0.00 47 1006.5
20260506001056 25 193 8.0 22.5 0.00 0.00 0.00 46 1006.4
20260506000558 25 171 8.0 27.4 0.00 0.00 0.00 44 1006.4
20260506000100 25 165 3.2 27.4 0.00 0.00 0.00 43 1006.4
20260505235556 25 219 8.0 27.4 0.00 0.00 0.00 42 1006.3
20260505235056 26 238 9.7 30.6 0.00 0.00 0.00 42 1006.3
20260505234555 26 224 11.3 30.6 0.00 0.00 0.00 41 1006.2
20260505234055 26 109 11.3 29.0 0.00 0.00 0.00 41 1006.2
20260505233556 26 172 11.3 22.5 0.00 0.00 0.00 41 1006.2
20260505233055 26 215 9.7 32.2 0.00 0.00 0.00 41 1006.0
20260505232556 26 175 12.9 35.4 0.00 0.00 0.00 40 1005.9
20260505232056 26 243 11.3 37.0 0.00 0.00 0.00 41 1006.0
20260505231555 26 229 11.3 37.0 0.00 0.00 0.00 40 1005.8
20260505231055 26 233 12.9 41.8 0.00 0.00 0.00 40 1005.9
20260505230555 26 225 12.9 41.8 0.00 0.00 0.00 40 1005.9
20260505225557 26 188 12.9 40.2 0.00 0.00 0.00 40 1005.8
20260505225055 26 216 14.5 40.2 0.00 0.00 0.00 40 1005.8
20260505224554 26 248 12.9 43.5 0.00 0.00 0.00 40 1005.9
20260505224057 26 215 17.7 43.5 0.00 0.00 0.00 40 1005.9
20260505223556 26 234 19.3 41.8 0.00 0.00 0.00 40 1006.0
20260505223100 26 202 19.3 41.8 0.00 0.00 0.00 40 1006.0
20260505222556 27 205 16.1 41.8 0.00 0.00 0.00 40 1005.9
20260505222058 27 227 14.5 37.0 0.00 0.00 0.00 39 1005.9
20260505221603 27 194 12.9 37.0 0.00 0.00 0.00 39 1005.9
20260505221055 27 161 14.5 37.0 0.00 0.00 0.00 38 1005.9
20260505220555 27 222 8.0 35.4 0.00 0.00 0.00 38 1005.8
20260505220108 27 237 16.1 40.2 0.00 0.00 0.00 38 1005.6
20260505215555 27 222 20.9 40.2 0.00 0.00 0.00 37 1005.7
20260505215057 27 242 17.7 46.7 0.00 0.00 0.00 35 1005.7
20260505214556 28 198 16.1 46.7 0.00 0.00 0.00 35 1005.7
20260505214056 28 148 16.1 38.6 0.00 0.00 0.00 35 1005.7
20260505213556 28 262 17.7 38.6 0.00 0.00 0.00 34 1005.6
20260505213053 28 200 16.1 35.4 0.00 0.00 0.00 34 1005.8
20260505212556 28 223 17.7 43.5 0.00 0.00 0.00 34 1005.6
20260505212056 27 242 24.1 46.7 0.00 0.00 0.00 33 1005.7
20260505211555 28 198 25.7 46.7 0.00 0.00 0.00 32 1005.6
20260505211056 28 202 16.1 35.4 0.00 0.00 0.00 33 1005.4
20260505210555 28 244 17.7 43.5 0.00 0.00 0.00 33 1005.5
20260505210055 28 207 22.5 43.5 0.00 0.00 0.00 32 1005.3
20260505205556 28 223 19.3 37.0 0.00 0.00 0.00 32 1005.4
20260505205056 28 221 17.7 54.7 0.00 0.00 0.00 32 1005.4
20260505204600 28 182 22.5 54.7 0.00 0.00 0.00 31 1005.4
20260505204056 28 200 19.3 40.2 0.00 0.00 0.00 30 1005.4
20260505203559 28 225 19.3 40.2 0.00 0.00 0.00 30 1005.3
20260505203106 28 235 20.9 38.6 0.00 0.00 0.00 30 1005.4
20260505202555 28 229 19.3 41.8 0.00 0.00 0.00 29 1005.4
20260505202058 28 226 22.5 51.5 0.00 0.00 0.00 29 1005.4
20260505201554 28 215 22.5 51.5 0.00 0.00 0.00 29 1005.3
20260505201056 28 195 27.4 49.9 0.00 0.00 0.00 30 1005.3
20260505200556 28 237 25.7 49.9 0.00 0.00 0.00 31 1005.3
20260505200057 28 236 25.7 49.9 0.00 0.00 0.00 31 1005.4
20260505195551 28 226 20.9 48.3 0.00 0.00 0.00 31 1005.4
20260505195051 28 195 24.1 38.6 0.00 0.00 0.00 31 1005.4
20260505194559 28 210 19.3 35.4 0.00 0.00 0.00 33 1005.4
20260505194051 28 209 19.3 43.5 0.00 0.00 0.00 32 1005.4
20260505193553 28 200 17.7 43.5 0.00 0.00 0.00 33 1005.3
20260505193053 28 169 20.9 40.2 0.00 0.00 0.00 34 1005.6
20260505192551 28 246 22.5 38.6 0.00 0.00 0.00 35 1005.5
20260505192052 28 202 20.9 38.6 0.00 0.00 0.00 36 1005.6
20260505191554 28 230 17.7 35.4 0.00 0.00 0.00 37 1005.7
20260505191052 28 180 19.3 40.2 0.00 0.00 0.00 36 1005.9
20260505190551 27 202 24.1 40.2 0.00 0.00 0.00 38 1005.7
20260505190053 28 217 22.5 38.6 0.00 0.00 0.00 36 1005.8
20260505185551 28 204 14.5 25.7 0.00 0.00 0.00 38 1005.9
20260505185055 28 221 11.3 33.8 0.00 0.00 0.00 38 1006.1
20260505184557 27 163 17.7 33.8 0.00 0.00 0.00 38 1006.2
20260505184055 28 209 14.5 30.6 0.00 0.00 0.00 38 1006.2
20260505183554 27 263 14.5 29.0 0.00 0.00 0.00 39 1006.3
20260505183056 28 192 11.3 25.7 0.00 0.00 0.00 39 1006.4
20260505182555 28 209 12.9 25.7 0.00 0.00 0.00 40 1006.4
20260505182051 27 177 14.5 30.6 0.00 0.00 0.00 40 1006.3
20260505181555 27 196 16.1 35.4 0.00 0.00 0.00 41 1006.5
20260505181051 27 223 12.9 35.4 0.00 0.00 0.00 40 1006.5
20260505180550 27 153 16.1 37.0 0.00 0.00 0.00 39 1006.6
20260505180056 27 208 16.1 37.0 0.00 0.00 0.00 38 1006.6
20260505175550 27 231 14.5 30.6 0.00 0.00 0.00 40 1006.7
20260505175050 27 184 14.5 30.6 0.00 0.00 0.00 40 1006.7
20260505174554 27 184 16.1 30.6 0.00 0.00 0.00 41 1006.7
20260505174052 27 205 11.3 32.2 0.00 0.00 0.00 41 1006.8
20260505173551 26 288 16.1 32.2 0.00 0.00 0.00 42 1006.8
20260505173053 26 229 19.3 32.2 0.00 0.00 0.00 41 1006.8
20260505172558 26 155 17.7 32.2 0.00 0.00 0.00 42 1006.8
20260505172054 26 269 12.9 29.0 0.00 0.00 0.00 42 1006.8
20260505171557 26 265 12.9 29.0 0.00 0.00 0.00 42 1006.9
20260505171054 26 225 14.5 32.2 0.00 0.00 0.00 42 1007.0
20260505170553 26 230 16.1 32.2 0.00 0.00 0.00 43 1007.1
20260505170054 26 224 12.9 29.0 0.00 0.00 0.00 43 1007.0
20260505165551 25 218 16.1 29.0 0.00 0.00 0.00 44 1007.2
20260505165056 25 206 17.7 30.6 0.00 0.00 0.00 44 1007.2
20260505164600 25 239 11.3 30.6 0.00 0.00 0.00 44 1007.2
20260505164056 25 211 8.0 24.1 0.00 0.00 0.00 45 1007.1
20260505163555 25 186 9.7 25.7 0.00 0.00 0.00 45 1007.3
20260505163055 25 220 14.5 25.7 0.00 0.00 0.00 46 1007.2